Regional Weather Roundup
Issued by NWS

Home | Current Version | Previous Version | Text Only | Print | Product List | Glossary On
Versions: 1 2 3 4 5 6 7 8 9 10 11 12 13 14 15 16 17 18 19 20 21 22 23 24 25 26 27
000
ASUS45 KTFX 211610
RWRMT
MONTANA REGIONAL WEATHER ROUNDUP
NATIONAL WEATHER SERVICE GREAT FALLS MT
1000 AM MDT FRI JUL 21 2017

NOTE: "FAIR" INDICATES FEW OR NO CLOUDS BELOW 12000 FEET WITH NO
SIGNIFICANT WEATHER AND/OR OBSTRUCTIONS TO VISIBILITY.

MTZ001>007-043-211700-
WEST OF THE DIVIDE

CITY           SKY/WX    TMP DP  RH WIND       PRES   REMARKS
KALISPELL      SUNNY     71  41  33 SW12G18   30.08S HAZE
MISSOULA       SUNNY     67  36  31 CALM      30.13S
BUTTE          SUNNY     66  39  37 VRB3      30.20F
MULLAN PASS    SUNNY     54  37  52 VRB5      30.22R
ANACONDA         N/A     64  43  45 N5        30.17F
EUREKA           N/A     70  39  32 MISG      30.06F
HAMILTON         N/A     66  45  45 CALM      30.14F
LIBBY            N/A     66  43  42 CALM      30.07S
PLAINS           N/A     67  39  35 CALM      30.10F
$$

MTZ008-052>055-211700-
SOUTHWEST MONTANA

CITY           SKY/WX    TMP DP  RH WIND       PRES   REMARKS
BOZEMAN        SUNNY     70  45  40 N3        30.14F
DILLON         SUNNY     70  44  39 SW10      30.17F
W YELLOWSTONE  SUNNY     64  37  36 CALM      30.27S
ENNIS          SUNNY     72  39  30 VRB5      30.23S
THREE FORKS      N/A     71  40  32 CALM      30.11S
TWIN BRIDGES     N/A     66  43  43 CALM      30.14
$$

MTZ009-010-012-014-046-048-049-054-211700-
EAST SLOPES AND CENTRAL MONTANA

CITY           SKY/WX    TMP DP  RH WIND       PRES   REMARKS
CUT BANK       SUNNY     69  33  26 SW25G31   30.02F
GREAT FALLS    SUNNY     75  24  15 SW16      30.02F
HELENA         SUNNY     74  33  22 W14       30.11F
CHOTEAU          N/A     73  27  17 VRB7G13   30.05F
CONRAD           N/A     73  32  22 SW12      30.05R
$$

MTZ011-013-016-021-045-047-050-051-211700-
NORTH CENTRAL MONTANA

CITY           SKY/WX    TMP DP  RH WIND       PRES   REMARKS
HAVRE          SUNNY     76  40  27 NW13      29.95F
LEWISTOWN      SUNNY     71  29  21 NW9       30.06F
N BAR RANCH      N/A     73  27  17 NW18G28   30.08F
CHINOOK          N/A     73  43  33 W15       29.94S
$$

MTZ017>020-022>027-061-062-211700-
NORTHEAST MONTANA

CITY           SKY/WX    TMP DP  RH WIND       PRES   REMARKS
GLASGOW        SUNNY     77  48  35 W17       29.87S
SIDNEY         PTSUNNY   74  60  61 SW10      29.82F
WOLF POINT     CLOUDY    75  59  57 W9        29.85S
MALTA          SUNNY     79  46  31 W13       29.91R
PLENTYWOOD       N/A     73  57  56 SW8       29.83F
POPLAR           N/A     72  61  68 W10       29.85S
SCOBEY           N/A     75  51  42 SW13      29.85S
$$

MTZ028>42-056>058-211700-
SOUTHCENTRAL AND SOUTHEAST MONTANA

CITY           SKY/WX    TMP DP  RH WIND       PRES   REMARKS
BAKER          SUNNY     82  55  39 W14       29.88R
BILLINGS       SUNNY     76  39  26 SW8       30.05S
LIVINGSTON     SUNNY     74  36  25 W8        30.12F
MILES CITY     SUNNY     82  44  26 NW20      29.93R
BIG TIMBER     SUNNY     77  36  22 W20       30.11S
EKALAKA          N/A     78  51  38 W14       29.92R
FORSYTH          N/A     79  45  29 W12       29.96R
LAUREL           N/A     80  35  19 W2        30.04F
$$

REGIONAL REPORTS...DAKOTAS

CITY           SKY/WX    TMP DP  RH WIND       PRES   REMARKS
WILLISTON      CLOUDY    77  60  55 S9        29.79F
MINOT          CLOUDY    71  62  73 N6        29.79F
DICKINSON      SUNNY     79  65  62 CALM      29.83F
BEACH            N/A     81  61  50 VRB5G13   29.88S
CROSBY           N/A     70  64  83 VRB7      29.84R
TIOGA            N/A     73  63  68 CALM      29.84R
WATFORD CITY     N/A     79  61  53 SE9       29.80F
BISMARCK       PTSUNNY   80  64  58 SE3       29.85R
GRAND FORKS    PTSUNNY   82  73  74 S8        29.78F
FARGO          MOSUNNY   84  74  71 SW13      29.78F HX  91
BUFFALO SD       N/A     79  61  53 W15       29.81F
RAPID CITY     CLOUDY    79  66  64 SW6       29.90S
$$

REGIONAL REPORTS...WYOMING/IDAHO/WASHINGTON

CITY           SKY/WX    TMP DP  RH WIND       PRES   REMARKS
GILLETTE       CLOUDY    79  40  24 NW20      30.03S
SHERIDAN       CLOUDY    81  39  22 N17       30.06R
BUFFALO WY     CLOUDY    76  38  25 N16       30.11R
CODY           SUNNY     72  41  32 NE8       30.15F
YELLOWSTONE LA   N/A     60  43  53 VRB5      30.35S
IDAHO FALLS    SUNNY     69  41  36 S6        30.17S
BOISE          SUNNY     70  48  45 VRB5      30.09S
SPOKANE        MOSUNNY   62  44  51 S7        30.13R
$$

REGIONAL REPORTS...ALBERTA

CITY           SKY/WX    TMP DP  RH WIND       PRES   REMARKS
EDMONTON       CLOUDY    55  54  94 W10       29.80S
CALGARY        MOSUNNY   66  34  30 W15G22    29.93S
LETHBRIDGE     MOSUNNY   72  39  30 W23G30    29.95S
MEDICINE HAT   MOSUNNY   66  52  59 S8        29.92F
WATERTON GATE    N/A     64  36  34 SW14G23     N/A
MILK RIVER       N/A     72  39  30 W15G21      N/A
ONEFOUR          N/A     70  41  35 W12         N/A
$$

REGIONAL REPORTS...SASKATCHEWAN

CITY           SKY/WX    TMP DP  RH WIND       PRES   REMARKS
SWIFT CURRENT  SUNNY     64  54  68 W20       29.86R
REGINA         PTSUNNY   73  59  60 S9        29.81F
SASKATOON      CLOUDY    63  59  88 N7        29.86R
CYPRESS HILLS    N/A     63  43  48 W7          N/A
VAL MARIE        N/A     75  48  38 NW14        N/A
ROCKGLEN         N/A     73  54  49 SW15        N/A
ASSINIBOIA       N/A     59  55  88 W12G17      N/A
$$




USA.gov is the U.S. government's official web portal to all federal, state and local government web resources and services.